owner,sensor,date,latitude,longitude,vertical_datum,direction_of_sea_water_velocity,sea_water_speed,upward_sea_water_velocity,qcFlag 
TABS,ioos:station:wmo:42050:1,2011-06-01T00:00:00Z,28.8425,-94.2433,2.0,265.4175933,70.72603835,-99999.0,'11111222,11111222,99999999' 
TABS,ioos:station:wmo:42050:1,2011-06-01T00:30:00Z,28.8425,-94.2433,2.0,269.5788633,66.73179902,-99999.0,'11111222,11111222,99999999' 
TABS,ioos:station:wmo:42050:1,2011-06-01T01:00:00Z,28.8425,-94.2433,2.0,273.0036394,62.98650649,-99999.0,'11111222,11111222,99999999' 
TABS,ioos:station:wmo:42050:1,2011-06-01T01:30:00Z,28.8425,-94.2433,2.0,279.5220647,61.90282788,-99999.0,'11111222,11111222,99999999' 
TABS,ioos:station:wmo:42050:1,2011-06-01T02:00:00Z,28.8425,-94.2433,2.0,283.803289,57.17097166,-99999.0,'11111222,11111222,99999999' 
TABS,ioos:station:wmo:42050:1,2011-06-01T02:30:00Z,28.8425,-94.2433,2.0,289.5117507,51.67757444,-99999.0,'11111222,11111222,99999999' 
TABS,ioos:station:wmo:42050:1,2011-06-01T03:00:00Z,28.8425,-94.2433,2.0,291.9824136,49.47691179,-99999.0,'11111222,11111222,99999999' 
TABS,ioos:station:wmo:42050:1,2011-06-01T03:30:00Z,28.8425,-94.2433,2.0,294.2676511,51.53360845,-99999.0,'11111222,11111222,99999999' 
TABS,ioos:station:wmo:42050:1,2011-06-01T04:00:00Z,28.8425,-94.2433,2.0,298.3973837,47.56311596,-99999.0,'11111222,11111222,99999999' 
TABS,ioos:station:wmo:42050:1,2011-06-01T04:30:00Z,28.8425,-94.2433,2.0,299.5144464,47.11373579,-99999.0,'11111222,11111222,99999999' 
TABS,ioos:station:wmo:42050:1,2011-06-01T05:00:00Z,28.8425,-94.2433,2.0,301.9998024,40.98799824,-99999.0,'11111222,11111222,99999999' 
TABS,ioos:station:wmo:42050:1,2011-06-01T05:30:00Z,28.8425,-94.2433,2.0,301.9312163,37.49321672,-99999.0,'11111222,11111222,99999999' 
TABS,ioos:station:wmo:42050:1,2011-06-01T06:00:00Z,28.8425,-94.2433,2.0,301.492773,33.27042681,-99999.0,'11111222,11111222,99999999' 
TABS,ioos:station:wmo:42050:1,2011-06-01T06:30:00Z,28.8425,-94.2433,2.0,304.1605861,30.75638795,-99999.0,'11111222,11111222,99999999' 
TABS,ioos:station:wmo:42050:1,2011-06-01T07:00:00Z,28.8425,-94.2433,2.0,311.3726819,26.59808264,-99999.0,'11111222,11111222,99999999' 
TABS,ioos:station:wmo:42050:1,2011-06-01T07:30:00Z,28.8425,-94.2433,2.0,314.7672725,24.33881673,-99999.0,'11111222,11111222,99999999' 
TABS,ioos:station:wmo:42050:1,2011-06-01T08:00:00Z,28.8425,-94.2433,2.0,322.0041831,21.57216725,-99999.0,'11111222,11111222,99999999' 
TABS,ioos:station:wmo:42050:1,2011-06-01T08:30:00Z,28.8425,-94.2433,2.0,319.1449297,16.14303875,-99999.0,'11111222,11111222,99999999' 
TABS,ioos:station:wmo:42050:1,2011-06-01T09:00:00Z,28.8425,-94.2433,2.0,321.0331218,15.13814057,-99999.0,'11111222,11111222,99999999' 
TABS,ioos:station:wmo:42050:1,2011-06-01T09:30:00Z,28.8425,-94.2433,2.0,338.257677,9.043367736,-99999.0,'11133222,11111222,99999999' 
TABS,ioos:station:wmo:42050:1,2011-06-01T10:00:00Z,28.8425,-94.2433,2.0,323.5180295,7.686175902,-99999.0,'11133222,11111222,99999999' 
TABS,ioos:station:wmo:42050:1,2011-06-01T10:30:00Z,28.8425,-94.2433,2.0,323.130399,6.0,-99999.0,'11133222,11111222,99999999' 
TABS,ioos:station:wmo:42050:1,2011-06-01T11:00:00Z,28.8425,-94.2433,2.0,303.4899885,6.343035551,-99999.0,'11133222,11111222,99999999' 
TABS,ioos:station:wmo:42050:1,2011-06-01T11:30:00Z,28.8425,-94.2433,2.0,62.03995894,14.69532239,-99999.0,'11111222,11111222,99999999' 
TABS,ioos:station:wmo:42050:1,2011-06-01T12:00:00Z,28.8425,-94.2433,2.0,71.98027286,17.45623098,-99999.0,'11111222,11111222,99999999' 
TABS,ioos:station:wmo:42050:1,2011-06-01T12:30:00Z,28.8425,-94.2433,2.0,95.94050354,20.58051992,-99999.0,'11111222,11111222,99999999' 
TABS,ioos:station:wmo:42050:1,2011-06-01T13:00:00Z,28.8425,-94.2433,2.0,106.9631582,22.03885886,-99999.0,'11111222,11111222,99999999' 
TABS,ioos:station:wmo:42050:1,2011-06-01T13:30:00Z,28.8425,-94.2433,2.0,190.3776955,26.64590212,-99999.0,'11111222,11111222,99999999' 
TABS,ioos:station:wmo:42050:1,2011-06-01T14:00:00Z,28.8425,-94.2433,2.0,220.1413291,41.91231323,-99999.0,'11111222,11111222,99999999' 
TABS,ioos:station:wmo:42050:1,2011-06-01T14:30:00Z,28.8425,-94.2433,2.0,217.2164161,42.2927748,-99999.0,'11111222,11111222,99999999' 
TABS,ioos:station:wmo:42050:1,2011-06-01T15:00:00Z,28.8425,-94.2433,2.0,221.1833433,47.38222874,-99999.0,'11111222,11111222,99999999' 
TABS,ioos:station:wmo:42050:1,2011-06-01T15:30:00Z,28.8425,-94.2433,2.0,218.1310914,56.05158517,-99999.0,'11111222,11111222,99999999' 
TABS,ioos:station:wmo:42050:1,2011-06-01T16:00:00Z,28.8425,-94.2433,2.0,219.3918587,57.67187269,-99999.0,'11111222,11111222,99999999' 
TABS,ioos:station:wmo:42050:1,2011-06-01T16:30:00Z,28.8425,-94.2433,2.0,223.4423932,57.50194866,-99999.0,'11111222,11111222,99999999' 
TABS,ioos:station:wmo:42050:1,2011-06-01T17:00:00Z,28.8425,-94.2433,2.0,225.2074463,60.45095615,-99999.0,'11111222,11111222,99999999' 
TABS,ioos:station:wmo:42050:1,2011-06-01T17:30:00Z,28.8425,-94.2433,2.0,225.9334458,61.17993217,-99999.0,'11111222,11111222,99999999' 
TABS,ioos:station:wmo:42050:1,2011-06-01T18:00:00Z,28.8425,-94.2433,2.0,226.1493628,62.0257511,-99999.0,'11111222,11111222,99999999' 
TABS,ioos:station:wmo:42050:1,2011-06-01T18:30:00Z,28.8425,-94.2433,2.0,228.2669912,61.90883701,-99999.0,'11111222,11111222,99999999' 
TABS,ioos:station:wmo:42050:1,2011-06-01T19:00:00Z,28.8425,-94.2433,2.0,232.8603341,62.09468657,-99999.0,'11111222,11111222,99999999' 
TABS,ioos:station:wmo:42050:1,2011-06-01T19:30:00Z,28.8425,-94.2433,2.0,234.504692,59.2630627,-99999.0,'11111222,11111222,99999999' 
TABS,ioos:station:wmo:42050:1,2011-06-01T20:00:00Z,28.8425,-94.2433,2.0,236.8217485,61.12485665,-99999.0,'11111222,11111222,99999999' 
TABS,ioos:station:wmo:42050:1,2011-06-01T20:30:00Z,28.8425,-94.2433,2.0,237.9531721,57.63209956,-99999.0,'11111222,11111222,99999999' 
TABS,ioos:station:wmo:42050:1,2011-06-01T21:00:00Z,28.8425,-94.2433,2.0,239.4548753,52.06493254,-99999.0,'11111222,11111222,99999999' 
TABS,ioos:station:wmo:42050:1,2011-06-01T21:30:00Z,28.8425,-94.2433,2.0,238.647089,49.02914439,-99999.0,'11111222,11111222,99999999' 
TABS,ioos:station:wmo:42050:1,2011-06-01T22:00:00Z,28.8425,-94.2433,2.0,239.9735059,51.03966791,-99999.0,'11111222,11111222,99999999' 
TABS,ioos:station:wmo:42050:1,2011-06-01T22:30:00Z,28.8425,-94.2433,2.0,244.2713226,52.06121397,-99999.0,'11111222,11111222,99999999' 
TABS,ioos:station:wmo:42050:1,2011-06-01T23:00:00Z,28.8425,-94.2433,2.0,245.1968166,49.15413309,-99999.0,'11111222,11111222,99999999' 
TABS,ioos:station:wmo:42050:1,2011-06-01T23:30:00Z,28.8425,-94.2433,2.0,248.4105102,46.60984982,-99999.0,'11111222,11111222,99999999' 
TABS,ioos:station:wmo:42050:1,2011-06-02T00:00:00Z,28.8425,-94.2433,2.0,251.9285787,44.81037826,-99999.0,'11111222,11111222,99999999' 
TABS,ioos:station:wmo:42050:1,2011-06-02T00:30:00Z,28.8425,-94.2433,2.0,250.931446,39.48661039,-99999.0,'11111222,11111222,99999999' 
TABS,ioos:station:wmo:42050:1,2011-06-02T01:00:00Z,28.8425,-94.2433,2.0,257.9123321,37.44005475,-99999.0,'11111222,11111222,99999999' 
TABS,ioos:station:wmo:42050:1,2011-06-02T01:30:00Z,28.8425,-94.2433,2.0,263.9625319,35.27563607,-99999.0,'11111222,11111222,99999999' 
TABS,ioos:station:wmo:42050:1,2011-06-02T02:00:00Z,28.8425,-94.2433,2.0,265.7104358,31.28762695,-99999.0,'11111222,11111222,99999999' 
TABS,ioos:station:wmo:42050:1,2011-06-02T02:30:00Z,28.8425,-94.2433,2.0,275.3782657,29.12821484,-99999.0,'11111222,11111222,99999999' 
TABS,ioos:station:wmo:42050:1,2011-06-02T03:00:00Z,28.8425,-94.2433,2.0,282.473484,24.53918499,-99999.0,'11111222,11111222,99999999' 
TABS,ioos:station:wmo:42050:1,2011-06-02T03:30:00Z,28.8425,-94.2433,2.0,294.2158912,21.38136806,-99999.0,'11111222,11111222,99999999' 
TABS,ioos:station:wmo:42050:1,2011-06-02T04:00:00Z,28.8425,-94.2433,2.0,303.2202842,18.25302441,-99999.0,'11111222,11111222,99999999' 
TABS,ioos:station:wmo:42050:1,2011-06-02T04:30:00Z,28.8425,-94.2433,2.0,318.0943665,18.86482441,-99999.0,'11111222,11111222,99999999' 
TABS,ioos:station:wmo:42050:1,2011-06-02T05:00:00Z,28.8425,-94.2433,2.0,321.1687825,19.28129923,-99999.0,'11111222,11111222,99999999' 
TABS,ioos:station:wmo:42050:1,2011-06-02T05:30:00Z,28.8425,-94.2433,2.0,327.2755161,19.75567766,-99999.0,'11111222,11111222,99999999' 
TABS,ioos:station:wmo:42050:1,2011-06-02T06:00:00Z,28.8425,-94.2433,2.0,341.5236957,17.41782995,-99999.0,'11111222,11111222,99999999' 
TABS,ioos:station:wmo:42050:1,2011-06-02T06:30:00Z,28.8425,-94.2433,2.0,339.0593323,15.33273622,-99999.0,'11111222,11111222,99999999' 
TABS,ioos:station:wmo:42050:1,2011-06-02T07:00:00Z,28.8425,-94.2433,2.0,346.5831986,11.89464165,-99999.0,'11111222,11111222,99999999' 
TABS,ioos:station:wmo:42050:1,2011-06-02T07:30:00Z,28.8425,-94.2433,2.0,11.80959366,10.79856472,-99999.0,'11111222,11111222,99999999' 
TABS,ioos:station:wmo:42050:1,2011-06-02T08:00:00Z,28.8425,-94.2433,2.0,43.62036982,7.928965885,-99999.0,'11133222,11111222,99999999' 
TABS,ioos:station:wmo:42050:1,2011-06-02T08:30:00Z,28.8425,-94.2433,2.0,92.56512973,6.256268856,-99999.0,'11133222,11111222,99999999' 
TABS,ioos:station:wmo:42050:1,2011-06-02T09:00:00Z,28.8425,-94.2433,2.0,127.9668623,7.103302049,-99999.0,'11133222,11111222,99999999' 
TABS,ioos:station:wmo:42050:1,2011-06-02T09:30:00Z,28.8425,-94.2433,2.0,151.4735892,17.37995685,-99999.0,'11111222,11111222,99999999' 
TABS,ioos:station:wmo:42050:1,2011-06-02T10:00:00Z,28.8425,-94.2433,2.0,162.0820219,30.13140886,-99999.0,'11111222,11111222,99999999' 
TABS,ioos:station:wmo:42050:1,2011-06-02T10:30:00Z,28.8425,-94.2433,2.0,170.2195957,35.55676026,-99999.0,'11111222,11111222,99999999' 
TABS,ioos:station:wmo:42050:1,2011-06-02T11:00:00Z,28.8425,-94.2433,2.0,171.5119146,40.31152937,-99999.0,'11111222,11111222,99999999' 
TABS,ioos:station:wmo:42050:1,2011-06-02T11:30:00Z,28.8425,-94.2433,2.0,175.3420471,42.23949455,-99999.0,'11111222,11111222,99999999' 
TABS,ioos:station:wmo:42050:1,2011-06-02T12:00:00Z,28.8425,-94.2433,2.0,178.4583108,48.69762315,-99999.0,'11111222,11111222,99999999' 
TABS,ioos:station:wmo:42050:1,2011-06-02T12:30:00Z,28.8425,-94.2433,2.0,182.0196824,50.50137919,-99999.0,'11111222,11111222,99999999' 
TABS,ioos:station:wmo:42050:1,2011-06-02T13:00:00Z,28.8425,-94.2433,2.0,187.6119732,49.59708157,-99999.0,'11111222,11111222,99999999' 
TABS,ioos:station:wmo:42050:1,2011-06-02T13:30:00Z,28.8425,-94.2433,2.0,192.0427892,49.50964855,-99999.0,'11111222,11111222,99999999' 
TABS,ioos:station:wmo:42050:1,2011-06-02T14:00:00Z,28.8425,-94.2433,2.0,198.6863276,51.84287994,-99999.0,'11111222,11111222,99999999' 
TABS,ioos:station:wmo:42050:1,2011-06-02T14:30:00Z,28.8425,-94.2433,2.0,209.1872167,45.64570188,-99999.0,'11111222,11111222,99999999' 
TABS,ioos:station:wmo:42050:1,2011-06-02T15:00:00Z,28.8425,-94.2433,2.0,212.2258549,44.29340019,-99999.0,'11111222,11111222,99999999' 
TABS,ioos:station:wmo:42050:1,2011-06-02T15:30:00Z,28.8425,-94.2433,2.0,219.9929066,49.26117335,-99999.0,'11111222,11111222,99999999' 
TABS,ioos:station:wmo:42050:1,2011-06-02T16:00:00Z,28.8425,-94.2433,2.0,223.772047,47.19606869,-99999.0,'11111222,11111222,99999999' 
TABS,ioos:station:wmo:42050:1,2011-06-02T16:30:00Z,28.8425,-94.2433,2.0,227.339876,45.71722651,-99999.0,'11111222,11111222,99999999' 
TABS,ioos:station:wmo:42050:1,2011-06-02T17:00:00Z,28.8425,-94.2433,2.0,231.4810769,49.42446054,-99999.0,'11111222,11111222,99999999' 
TABS,ioos:station:wmo:42050:1,2011-06-02T17:30:00Z,28.8425,-94.2433,2.0,236.2661187,51.17665483,-99999.0,'11111222,11111222,99999999' 
TABS,ioos:station:wmo:42050:1,2011-06-02T18:00:00Z,28.8425,-94.2433,2.0,238.4692109,53.58049365,-99999.0,'11111222,11111222,99999999' 
TABS,ioos:station:wmo:42050:1,2011-06-02T18:30:00Z,28.8425,-94.2433,2.0,237.5182835,51.80388402,-99999.0,'11111222,11111222,99999999' 
TABS,ioos:station:wmo:42050:1,2011-06-02T19:00:00Z,28.8425,-94.2433,2.0,238.3921507,53.11989458,-99999.0,'11111222,11111222,99999999' 
TABS,ioos:station:wmo:42050:1,2011-06-02T19:30:00Z,28.8425,-94.2433,2.0,238.6670245,54.07633956,-99999.0,'11111222,11111222,99999999' 
TABS,ioos:station:wmo:42050:1,2011-06-02T20:00:00Z,28.8425,-94.2433,2.0,238.230208,53.54200687,-99999.0,'11111222,11111222,99999999' 
TABS,ioos:station:wmo:42050:1,2011-06-02T20:30:00Z,28.8425,-94.2433,2.0,240.647607,54.63362335,-99999.0,'11111222,11111222,99999999' 
TABS,ioos:station:wmo:42050:1,2011-06-02T21:00:00Z,28.8425,-94.2433,2.0,239.2854767,54.33126724,-99999.0,'11111222,11111222,99999999' 
TABS,ioos:station:wmo:42050:1,2011-06-02T21:30:00Z,28.8425,-94.2433,2.0,236.9907408,56.2256116,-99999.0,'11111222,11111222,99999999' 
TABS,ioos:station:wmo:42050:1,2011-06-02T22:00:00Z,28.8425,-94.2433,2.0,239.9894284,51.42411205,-99999.0,'11111222,11111222,99999999' 
TABS,ioos:station:wmo:42050:1,2011-06-02T22:30:00Z,28.8425,-94.2433,2.0,234.8957594,53.28130723,-99999.0,'11111222,11111222,99999999' 
TABS,ioos:station:wmo:42050:1,2011-06-02T23:00:00Z,28.8425,-94.2433,2.0,235.9412404,48.31815911,-99999.0,'11111222,11111222,99999999' 
TABS,ioos:station:wmo:42050:1,2011-06-02T23:30:00Z,28.8425,-94.2433,2.0,232.0190879,46.63676232,-99999.0,'11111222,11111222,99999999' 
TABS,ioos:station:wmo:42050:1,2011-06-03T00:00:00Z,28.8425,-94.2433,2.0,228.6118586,45.11819367,-99999.0,'11111222,11111222,99999999' 
TABS,ioos:station:wmo:42050:1,2011-06-03T00:30:00Z,28.8425,-94.2433,2.0,228.9777402,45.35704245,-99999.0,'11111222,11111222,99999999' 
TABS,ioos:station:wmo:42050:1,2011-06-03T01:00:00Z,28.8425,-94.2433,2.0,228.7390589,44.019189,-99999.0,'11111222,11111222,99999999' 
TABS,ioos:station:wmo:42050:1,2011-06-03T01:30:00Z,28.8425,-94.2433,2.0,234.3644076,44.36830062,-99999.0,'11111222,11111222,99999999' 
TABS,ioos:station:wmo:42050:1,2011-06-03T02:00:00Z,28.8425,-94.2433,2.0,238.7732418,42.64871628,-99999.0,'11111222,11111222,99999999' 
TABS,ioos:station:wmo:42050:1,2011-06-03T02:30:00Z,28.8425,-94.2433,2.0,239.2807467,45.74938032,-99999.0,'11111222,11111222,99999999' 
TABS,ioos:station:wmo:42050:1,2011-06-03T03:00:00Z,28.8425,-94.2433,2.0,237.1768546,45.99268855,-99999.0,'11111222,11111222,99999999' 
TABS,ioos:station:wmo:42050:1,2011-06-03T03:30:00Z,28.8425,-94.2433,2.0,238.2874716,42.67077337,-99999.0,'11111222,11111222,99999999' 
TABS,ioos:station:wmo:42050:1,2011-06-03T04:00:00Z,28.8425,-94.2433,2.0,248.430276,38.05485777,-99999.0,'11111222,11111222,99999999' 
TABS,ioos:station:wmo:42050:1,2011-06-03T04:30:00Z,28.8425,-94.2433,2.0,255.3082656,44.12253959,-99999.0,'11111222,11111222,99999999' 
TABS,ioos:station:wmo:42050:1,2011-06-03T05:00:00Z,28.8425,-94.2433,2.0,264.4548071,41.60466921,-99999.0,'11111222,11111222,99999999' 
TABS,ioos:station:wmo:42050:1,2011-06-03T05:30:00Z,28.8425,-94.2433,2.0,272.2988528,43.8853062,-99999.0,'11111222,11111222,99999999' 
TABS,ioos:station:wmo:42050:1,2011-06-03T06:00:00Z,28.8425,-94.2433,2.0,281.629727,42.21661521,-99999.0,'11111222,11111222,99999999' 
TABS,ioos:station:wmo:42050:1,2011-06-03T06:30:00Z,28.8425,-94.2433,2.0,289.2968829,41.85115172,-99999.0,'11111222,11111222,99999999' 
TABS,ioos:station:wmo:42050:1,2011-06-03T07:00:00Z,28.8425,-94.2433,2.0,294.5146329,35.74184243,-99999.0,'11111222,11111222,99999999' 
TABS,ioos:station:wmo:42050:1,2011-06-03T07:30:00Z,28.8425,-94.2433,2.0,295.7079001,31.67521428,-99999.0,'11111222,11111222,99999999' 
TABS,ioos:station:wmo:42050:1,2011-06-03T08:00:00Z,28.8425,-94.2433,2.0,303.3243281,25.61103083,-99999.0,'11111222,11111222,99999999' 
TABS,ioos:station:wmo:42050:1,2011-06-03T08:30:00Z,28.8425,-94.2433,2.0,301.8577808,24.63019285,-99999.0,'11111222,11111222,99999999' 
TABS,ioos:station:wmo:42050:1,2011-06-03T09:00:00Z,28.8425,-94.2433,2.0,291.3511204,21.01207748,-99999.0,'11111222,11111222,99999999' 
TABS,ioos:station:wmo:42050:1,2011-06-03T09:30:00Z,28.8425,-94.2433,2.0,286.065241,17.12889956,-99999.0,'11111222,11111222,99999999' 
TABS,ioos:station:wmo:42050:1,2011-06-03T10:00:00Z,28.8425,-94.2433,2.0,273.7436841,18.84019374,-99999.0,'11111222,11111222,99999999' 
TABS,ioos:station:wmo:42050:1,2011-06-03T10:30:00Z,28.8425,-94.2433,2.0,261.1803894,16.69741297,-99999.0,'11111222,11111222,99999999' 
TABS,ioos:station:wmo:42050:1,2011-06-03T11:00:00Z,28.8425,-94.2433,2.0,242.4435466,13.44525195,-99999.0,'11111222,11111222,99999999' 
TABS,ioos:station:wmo:42050:1,2011-06-03T11:30:00Z,28.8425,-94.2433,2.0,232.4609548,19.87535408,-99999.0,'11111222,11111222,99999999' 
TABS,ioos:station:wmo:42050:1,2011-06-03T12:00:00Z,28.8425,-94.2433,2.0,215.5787359,22.54972284,-99999.0,'11111222,11111222,99999999' 
TABS,ioos:station:wmo:42050:1,2011-06-03T12:30:00Z,28.8425,-94.2433,2.0,212.9305591,27.6292689,-99999.0,'11111222,11111222,99999999' 
TABS,ioos:station:wmo:42050:1,2011-06-03T13:00:00Z,28.8425,-94.2433,2.0,214.7492164,24.00043333,-99999.0,'11111222,11111222,99999999' 
TABS,ioos:station:wmo:42050:1,2011-06-03T13:30:00Z,28.8425,-94.2433,2.0,213.0828288,25.13487617,-99999.0,'11111222,11111222,99999999' 
TABS,ioos:station:wmo:42050:1,2011-06-03T14:00:00Z,28.8425,-94.2433,2.0,216.8093337,24.71801367,-99999.0,'11111222,11111222,99999999' 
TABS,ioos:station:wmo:42050:1,2011-06-03T14:30:00Z,28.8425,-94.2433,2.0,211.9644563,26.89851297,-99999.0,'11111222,11111222,99999999' 
TABS,ioos:station:wmo:42050:1,2011-06-03T15:00:00Z,28.8425,-94.2433,2.0,218.3819068,22.88597169,-99999.0,'11111222,11111222,99999999' 
TABS,ioos:station:wmo:42050:1,2011-06-03T15:30:00Z,28.8425,-94.2433,2.0,220.3863462,21.7148912,-99999.0,'11111222,11111222,99999999' 
TABS,ioos:station:wmo:42050:1,2011-06-03T16:00:00Z,28.8425,-94.2433,2.0,219.0612101,24.05759755,-99999.0,'11111222,11111222,99999999' 
TABS,ioos:station:wmo:42050:1,2011-06-03T16:30:00Z,28.8425,-94.2433,2.0,215.2412521,20.69235608,-99999.0,'11111222,11111222,99999999' 
TABS,ioos:station:wmo:42050:1,2011-06-03T17:00:00Z,28.8425,-94.2433,2.0,219.2031931,22.05428983,-99999.0,'11111222,11111222,99999999' 
TABS,ioos:station:wmo:42050:1,2011-06-03T17:30:00Z,28.8425,-94.2433,2.0,210.6078585,24.03941971,-99999.0,'11111222,11111222,99999999' 
TABS,ioos:station:wmo:42050:1,2011-06-03T18:00:00Z,28.8425,-94.2433,2.0,209.640393,22.50489947,-99999.0,'11111222,11111222,99999999' 
TABS,ioos:station:wmo:42050:1,2011-06-03T18:30:00Z,28.8425,-94.2433,2.0,206.2677003,25.01299262,-99999.0,'11111222,11111222,99999999' 
TABS,ioos:station:wmo:42050:1,2011-06-03T19:00:00Z,28.8425,-94.2433,2.0,212.441897,28.78189883,-99999.0,'11111222,11111222,99999999' 
TABS,ioos:station:wmo:42050:1,2011-06-03T19:30:00Z,28.8425,-94.2433,2.0,214.4531624,28.93573051,-99999.0,'11111222,11111222,99999999' 
TABS,ioos:station:wmo:42050:1,2011-06-03T20:00:00Z,28.8425,-94.2433,2.0,213.4031047,32.15082581,-99999.0,'11111222,11111222,99999999' 
TABS,ioos:station:wmo:42050:1,2011-06-03T20:30:00Z,28.8425,-94.2433,2.0,212.418791,32.88517143,-99999.0,'11111222,11111222,99999999' 
TABS,ioos:station:wmo:42050:1,2011-06-03T21:00:00Z,28.8425,-94.2433,2.0,209.0217353,32.44386691,-99999.0,'11111222,11111222,99999999' 
TABS,ioos:station:wmo:42050:1,2011-06-03T21:30:00Z,28.8425,-94.2433,2.0,204.2522037,31.69748255,-99999.0,'11111222,11111222,99999999' 
TABS,ioos:station:wmo:42050:1,2011-06-03T22:00:00Z,28.8425,-94.2433,2.0,206.2983267,31.7346199,-99999.0,'11111222,11111222,99999999' 
TABS,ioos:station:wmo:42050:1,2011-06-03T22:30:00Z,28.8425,-94.2433,2.0,202.9660701,31.42057447,-99999.0,'11111222,11111222,99999999' 
TABS,ioos:station:wmo:42050:1,2011-06-03T23:00:00Z,28.8425,-94.2433,2.0,205.1263081,33.13555341,-99999.0,'11111222,11111222,99999999' 
TABS,ioos:station:wmo:42050:1,2011-06-03T23:30:00Z,28.8425,-94.2433,2.0,204.6605098,34.99142752,-99999.0,'11111222,11111222,99999999' 
TABS,ioos:station:wmo:42050:1,2011-06-04T00:00:00Z,28.8425,-94.2433,2.0,204.9103579,34.85246763,-99999.0,'11111222,11111222,99999999' 
TABS,ioos:station:wmo:42050:1,2011-06-04T00:30:00Z,28.8425,-94.2433,2.0,209.6786905,33.42490239,-99999.0,'11111222,11111222,99999999' 
TABS,ioos:station:wmo:42050:1,2011-06-04T01:00:00Z,28.8425,-94.2433,2.0,211.6221436,35.20755601,-99999.0,'11111222,11111222,99999999' 
TABS,ioos:station:wmo:42050:1,2011-06-04T01:30:00Z,28.8425,-94.2433,2.0,214.963611,35.0573958,-99999.0,'11111222,11111222,99999999' 
TABS,ioos:station:wmo:42050:1,2011-06-04T02:00:00Z,28.8425,-94.2433,2.0,218.8012961,34.70972486,-99999.0,'11111222,11111222,99999999' 
TABS,ioos:station:wmo:42050:1,2011-06-04T02:30:00Z,28.8425,-94.2433,2.0,222.2087928,32.82039914,-99999.0,'11111222,11111222,99999999' 
TABS,ioos:station:wmo:42050:1,2011-06-04T03:00:00Z,28.8425,-94.2433,2.0,229.4965069,28.49928069,-99999.0,'11111222,11111222,99999999' 
TABS,ioos:station:wmo:42050:1,2011-06-04T03:30:00Z,28.8425,-94.2433,2.0,235.2597073,25.88388302,-99999.0,'11111222,11111222,99999999' 
TABS,ioos:station:wmo:42050:1,2011-06-04T04:00:00Z,28.8425,-94.2433,2.0,249.4046664,22.40168074,-99999.0,'11111222,11111222,99999999' 
TABS,ioos:station:wmo:42050:1,2011-06-04T04:30:00Z,28.8425,-94.2433,2.0,259.9046299,18.3135196,-99999.0,'11111222,11111222,99999999' 
TABS,ioos:station:wmo:42050:1,2011-06-04T05:00:00Z,28.8425,-94.2433,2.0,273.8689649,17.48985134,-99999.0,'11111222,11111222,99999999' 
TABS,ioos:station:wmo:42050:1,2011-06-04T05:30:00Z,28.8425,-94.2433,2.0,289.7472113,14.50284455,-99999.0,'11111222,11111222,99999999' 
TABS,ioos:station:wmo:42050:1,2011-06-04T06:00:00Z,28.8425,-94.2433,2.0,298.0995829,13.86411916,-99999.0,'11111222,11111222,99999999' 
TABS,ioos:station:wmo:42050:1,2011-06-04T06:30:00Z,28.8425,-94.2433,2.0,318.483579,14.66420131,-99999.0,'11111222,11111222,99999999' 
TABS,ioos:station:wmo:42050:1,2011-06-04T07:00:00Z,28.8425,-94.2433,2.0,327.7298573,14.66522758,-99999.0,'11111222,11111222,99999999' 
TABS,ioos:station:wmo:42050:1,2011-06-04T07:30:00Z,28.8425,-94.2433,2.0,346.6107943,17.40303996,-99999.0,'11111222,11111222,99999999' 
TABS,ioos:station:wmo:42050:1,2011-06-04T08:00:00Z,28.8425,-94.2433,2.0,349.6767725,16.51738781,-99999.0,'11111222,11111222,99999999' 
TABS,ioos:station:wmo:42050:1,2011-06-04T08:30:00Z,28.8425,-94.2433,2.0,354.8425123,14.12720071,-99999.0,'11111222,11111222,99999999' 
TABS,ioos:station:wmo:42050:1,2011-06-04T09:00:00Z,28.8425,-94.2433,2.0,358.949908,12.0020165,-99999.0,'11111222,11111222,99999999' 
TABS,ioos:station:wmo:42050:1,2011-06-04T09:30:00Z,28.8425,-94.2433,2.0,6.251705059,9.275154985,-99999.0,'11133222,11111222,99999999' 
TABS,ioos:station:wmo:42050:1,2011-06-04T10:00:00Z,28.8425,-94.2433,2.0,31.60763879,10.53239289,-99999.0,'11111222,11111222,99999999' 
TABS,ioos:station:wmo:42050:1,2011-06-04T10:30:00Z,28.8425,-94.2433,2.0,42.63386277,5.137976255,-99999.0,'11133222,11111222,99999999' 
TABS,ioos:station:wmo:42050:1,2011-06-04T11:00:00Z,28.8425,-94.2433,2.0,105.0377807,4.85630518,-99999.0,'11133222,11111222,99999999' 
TABS,ioos:station:wmo:42050:1,2011-06-04T11:30:00Z,28.8425,-94.2433,2.0,110.7681752,9.165555084,-99999.0,'11133222,11111222,99999999' 
TABS,ioos:station:wmo:42050:1,2011-06-04T12:00:00Z,28.8425,-94.2433,2.0,128.1067183,11.48867703,-99999.0,'11111222,11111222,99999999' 
TABS,ioos:station:wmo:42050:1,2011-06-04T12:30:00Z,28.8425,-94.2433,2.0,132.672954,15.15165008,-99999.0,'11111222,11111222,99999999' 
TABS,ioos:station:wmo:42050:1,2011-06-04T13:00:00Z,28.8425,-94.2433,2.0,143.8228163,18.85537854,-99999.0,'11111222,11111222,99999999' 
TABS,ioos:station:wmo:42050:1,2011-06-04T13:30:00Z,28.8425,-94.2433,2.0,145.2851099,22.17768698,-99999.0,'11111222,11111222,99999999' 
TABS,ioos:station:wmo:42050:1,2011-06-04T14:00:00Z,28.8425,-94.2433,2.0,150.5892988,24.23307863,-99999.0,'11111222,11111222,99999999' 
TABS,ioos:station:wmo:42050:1,2011-06-04T14:30:00Z,28.8425,-94.2433,2.0,154.8586002,23.93779021,-99999.0,'11111222,11111222,99999999' 
TABS,ioos:station:wmo:42050:1,2011-06-04T15:00:00Z,28.8425,-94.2433,2.0,162.2400274,23.07990468,-99999.0,'11111222,11111222,99999999' 
TABS,ioos:station:wmo:42050:1,2011-06-04T15:30:00Z,28.8425,-94.2433,2.0,160.0547255,24.47820663,-99999.0,'11111222,11111222,99999999' 
TABS,ioos:station:wmo:42050:1,2011-06-04T16:00:00Z,28.8425,-94.2433,2.0,161.547867,21.2947787,-99999.0,'11111222,11111222,99999999' 